Beaufort, NC

10:04 PM EST on January 21, 2017 (GMT -0500)
Beaufort

Weather History for KMRH - February, 2012

Change the Weather History Date:

Wednesday, February 8, 2012

  Actual Average Record
Temperature  
Mean Temperature 50 °F -  
Max Temperature 60 °F 54 °F 70 °F (1990)
Min Temperature 41 °F 32 °F 15 °F (1977)
Degree Days  
Heating Degree Days 14    
Moisture  
Dew Point 44 °F    
Average Humidity 82    
Maximum Humidity 96    
Minimum Humidity 67    
Precipitation  
Precipitation 0.02 in - - ()
Sea Level Pressure  
Sea Level Pressure 30.10 in    
Wind  
Wind Speed 7 mph (North)    
Max Wind Speed 20 mph    
Max Gust Speed -    
Visibility 10 miles    
Events      
Averages and records for this station are not official NWS values.
T = Trace of Precipitation, MM = Missing Value Source: NWS Daily Summary

Daily Weather History Graph

Daily Weather History Graph

Search for Another Location

Airport or City:

Trip Planner

Search our weather history database for the weather conditions in past years. The results will help you decide how hot, cold, wet, or windy it might be!

Date:

Astronomy

Feb. 08, 2012 Rise Set
Actual Time 6:59 AM EST 5:42 PM EST
Civil Twilight 6:33 AM EST 6:08 PM EST
Nautical Twilight 6:03 AM EST 6:38 PM EST
Astronomical Twilight 5:34 AM EST 7:07 PM EST
Moon 6:53 PM EST (2/8) 7:05 AM EST (2/8)
Length of Visible Light 11h 35m
Length of Day
10h 42m
Full, 99% of the Moon is Illuminated
Feb 8
Full
Feb 14
Last Quarter
Feb 21
New
Feb 29
First Quarter
Mar 8
Full

Hourly Weather History & Observations

Time (EST) Temp. Windchill Dew Point Humidity Pressure Visibility Wind Dir Wind Speed Gust Speed Precip Events Conditions
12:56 AM 43.0 °F 41.3 °F 39.9 °F 89% 30.16 in 10.0 mi NNE 3.5 mph - N/A   Clear
1:56 AM 42.1 °F 39.2 °F 39.9 °F 92% 30.17 in 9.0 mi NNE 4.6 mph - N/A   Clear
2:56 AM 41.0 °F 38.0 °F 39.0 °F 93% 30.15 in 10.0 mi NE 4.6 mph - N/A   Clear
3:56 AM 41.0 °F 37.1 °F 37.9 °F 89% 30.14 in 10.0 mi NNE 5.8 mph - N/A   Clear
4:56 AM 42.1 °F 38.4 °F 39.9 °F 92% 30.13 in 9.0 mi NNE 5.8 mph - N/A   Clear
5:56 AM 42.1 °F 39.2 °F 41.0 °F 96% 30.13 in 9.0 mi NNE 4.6 mph - N/A   Clear
6:56 AM 42.1 °F 38.4 °F 41.0 °F 96% 30.13 in 10.0 mi NNE 5.8 mph - N/A   Clear
7:56 AM 45.0 °F 42.6 °F 43.0 °F 93% 30.13 in 10.0 mi NNE 4.6 mph - N/A   Mostly Cloudy
8:56 AM 48.9 °F - 46.0 °F 90% 30.13 in 10.0 mi NE 4.6 mph - N/A   Mostly Cloudy
9:56 AM 53.1 °F - 46.9 °F 80% 30.12 in 10.0 mi NE 8.1 mph - N/A   Scattered Clouds
10:56 AM 55.9 °F - 46.9 °F 72% 30.10 in 10.0 mi NNE 11.5 mph - N/A   Overcast
11:12 AM 55.4 °F - 46.4 °F 72% 30.10 in 10.0 mi North 10.4 mph - N/A   Overcast
11:32 AM 57.2 °F - 48.2 °F 72% 30.09 in 10.0 mi North 11.5 mph - N/A   Overcast
11:56 AM 59.0 °F - 48.0 °F 67% 30.08 in 10.0 mi NNE 5.8 mph - N/A   Mostly Cloudy
12:56 PM 59.0 °F - 48.0 °F 67% 30.04 in 10.0 mi NNE 4.6 mph - N/A   Partly Cloudy
1:11 PM 59.0 °F - 48.2 °F 67% 30.03 in 10.0 mi NNW 6.9 mph - N/A   Mostly Cloudy
1:56 PM 60.1 °F - 48.9 °F 67% 30.03 in 10.0 mi NNW 9.2 mph - N/A   Mostly Cloudy
2:33 PM 57.2 °F - 48.2 °F 72% 30.02 in 10.0 mi NW 9.2 mph - N/A   Scattered Clouds
2:56 PM 59.0 °F - 48.0 °F 67% 30.02 in 10.0 mi NNW 12.7 mph - N/A   Clear
3:56 PM 55.9 °F - 45.0 °F 67% 30.03 in 10.0 mi NNW 13.8 mph - N/A   Partly Cloudy
4:56 PM 53.1 °F - 43.0 °F 69% 30.03 in 10.0 mi NNW 19.6 mph - N/A   Mostly Cloudy
5:56 PM 48.0 °F - 45.0 °F 89% 30.05 in 8.0 mi NNW 11.5 mph - 0.02 in   Overcast
6:56 PM 46.9 °F - 44.1 °F 90% 30.07 in 8.0 mi NNW 15.0 mph - N/A   Mostly Cloudy
7:56 PM 46.0 °F 40.2 °F 43.0 °F 89% 30.10 in 9.0 mi NNW 12.7 mph - N/A   Clear
8:56 PM 45.0 °F 38.9 °F 42.1 °F 90% 30.12 in 8.0 mi NNW 12.7 mph - N/A   Clear
9:56 PM 44.1 °F 37.7 °F 42.1 °F 93% 30.14 in 7.0 mi NNW 12.7 mph - N/A   Clear
10:56 PM 43.0 °F 37.2 °F 39.9 °F 89% 30.14 in 8.0 mi NNW 10.4 mph - N/A   Clear
11:56 PM 42.1 °F 36.1 °F 39.0 °F 89% 30.15 in 10.0 mi NNW 10.4 mph - N/A   Clear